User: anonymous   Login
Location: Black Rock Desert
(40.7548°N, 119.2364°W)
Time: 16:47:13
(UTC-07:00)
Language:

Cosmos 1340 Rocket - Orbit

View from above orbital plane
View from above orbital plane
View from above satellite
View from above satellite

Ground track
Ground track

The orbit data is extracted from the following two-line orbital elements,

1 13068U 82013B   15085.49205035  .00003230  00000-0  22185-3 0  9998
2 13068 081.2019 070.6483 0023776 118.5513 241.8108 15.05476791800993
Epoch (UTC): 26 March 2015 11:48:33
Eccentricity: 0.0023776
inclination: 81.2019°
perigee height: 533 km
apogee height: 566 km
right ascension of ascending node: 70.6483°
argument of perigee: 118.5513°
revolutions per day: 15.05476791
mean anomaly at epoch: 241.8108°
orbit number at epoch: 80099

The dashed part of the orbit path shows where the satellite is in the earth's shadow,  

DLR